Wind_Speed
16 16 15 14 13 12 10 8 3 1 2 1 0 1 1 2 1 1 2 1 1 1 2 2 0 2 2 1 5 6 6 4 15 9 5 2 2 2 4 2 1 2 4 6 7
15 15 15 14 13 12 11 10 8 5 1 3 4 3 1 1 2 2 2 1 1 1 1 2 2 2 7 7 7 8 5 9 21 13 6 5 4 4 2 2 1 1 4 6 7
17 15 14 13 13 13 12 11 8 6 3 2 2 7 6 5 6 4 3 2 2 2 2 2 3 6 5 9 6 5 8 13 19 8 7 6 5 4 1 1 3 4 1 5 9
19 18 17 16 15 14 13 12 10 8 6 5 5 5 5 7 9 8 6 3 4 5 4 3 6 6 4 6 9 8 6 17 19 14 10 3 2 3 3 2 3 5 4 6 8
17 17 17 16 16 16 15 14 13 11 9 7 4 6 7 9 9 8 8 5 5 8 5 5 6 10 7 7 11 9 9 22 22 15 11 9 4 3 3 2 3 5 4 6 9
15 15 15 15 15 15 15 15 13 11 9 8 6 3 3 8 9 8 9 7 7 9 7 6 7 7 2 5 4 7 6 28 24 13 10 5 7 5 2 3 5 5 5 7 8
14 15 15 15 14 14 14 14 15 14 10 8 7 6 6 5 6 9 7 9 8 11 10 7 6 7 8 3 3 7 7 10 12 13 15 13 10 9 8 6 4 4 6 6 7
15 16 16 15 15 14 13 12 13 15 14 8 6 5 5 4 5 6 9 8 9 12 12 9 8 6 4 2 5 9 8 6 6 21 14 16 14 11 8 9 6 5 5 6 7
17 17 18 17 15 13 12 12 11 11 15 10 6 5 4 3 5 6 8 8 10 12 12 11 8 6 5 6 15 2 7 9 13 7 3 7 14 8 9 9 8 7 6 6 5
19 20 20 18 15 13 12 12 11 11 12 12 8 5 6 4 2 5 6 9 13 13 12 10 8 5 3 9 4 13 8 7 6 5 5 8 7 14 11 14 9 6 7 6 3
20 18 17 17 14 13 13 12 11 10 11 11 10 7 7 6 4 2 6 7 12 12 12 11 12 4 9 21 7 12 11 7 4 7 7 6 1 13 11 11 17 13 9 9 8
17 14 14 14 13 12 12 13 12 13 12 10 10 11 7 5 3 1 4 6 10 12 12 12 10 11 17 16 1 7 5 8 13 9 4 2 8 13 13 13 9 6 10 10 8
13 13 13 12 12 12 12 12 13 13 13 10 10 11 8 5 3 0 2 5 9 12 14 14 3 19 15 16 9 4 8 12 14 6 5 5 5 5 12 4 9 9 10 10 4
13 12 12 12 12 12 13 13 13 14 14 8 9 8 7 7 4 3 0 3 7 11 13 15 17 12 15 10 8 7 16 15 5 8 6 8 6 5 6 8 8 4 13 14 13
13 13 13 13 13 13 13 14 13 12 5 12 9 8 7 8 6 5 5 4 5 10 11 8 12 13 13 8 9 12 21 9 6 6 16 8 12 13 12 8 8 0 10 11 11
14 14 17 15 13 14 14 16 14 12 10 13 12 7 8 8 6 6 6 6 7 8 11 14 12 11 9 13 16 14 6 3 4 3 6 12 3 11 10 10 6 8 7 9 9
17 17 17 12 13 15 16 17 15 11 18 19 14 12 9 9 8 6 6 6 8 9 10 10 11 13 16 5 8 5 1 6 5 10 13 16 8 20 23 18 23 17 15 14 12
17 19 16 13 11 13 15 17 15 13 13 18 15 17 10 10 10 9 6 7 7 8 8 9 13 12 12 15 13 4 10 13 3 8 15 14 10 20 26 21 17 15 17 18 16
18 16 15 13 14 15 17 17 16 16 18 21 19 18 16 13 9 12 8 7 11 9 13 13 9 20 14 16 14 9 15 10 13 10 12 10 10 21 20 21 18 19 17 18 19
17 15 15 16 17 18 18 17 19 17 19 19 20 18 15 15 16 14 13 10 11 13 18 10 16 20 18 16 19 18 11 7 4 7 9 13 12 13 23 16 18 17 18 17 18
19 19 22 22 21 21 20 20 21 20 21 20 21 19 20 16 21 17 13 14 12 15 14 16 16 19 18 13 11 12 16 14 8 13 7 6 14 20 27 22 18 17 16 15 19
25 25 24 24 23 22 22 20 21 21 19 20 22 25 26 19 23 22 19 17 19 16 16 15 10 18 10 15 21 18 14 12 11 11 13 17 14 25 20 16 17 16 16 14 14
27 28 26 25 24 25 25 22 22 21 20 21 23 26 29 31 25 24 22 17 23 16 22 14 18 18 23 14 21 21 20 21 15 13 13 10 18 27 16 15 15 16 16 14 16
33 34 31 30 28 29 30 29 29 27 26 26 26 28 31 33 33 28 21 23 31 22 22 22 20 22 18 30 16 13 15 18 16 14 11 10 22 24 18 15 15 13 15 15 15
30 29 31 32 32 31 32 31 29 30 29 31 28 30 29 36 34 33 32 26 30 29 27 21 22 24 28 23 19 12 15 16 19 17 18 13 10 21 28 15 16 15 15 16 16
30 31 31 32 31 30 30 30 29 29 31 27 31 30 35 34 33 30 35 35 26 31 29 25 23 23 26 21 18 19 20 22 21 20 20 20 19 23 31 16 17 18 15 15 16
29 29 29 30 29 28 29 27 29 30 29 30 36 31 33 31 42 45 42 38 39 34 29 32 27 27 26 27 24 27 27 22 21 23 22 22 19 22 30 18 19 19 16 16 17
Wind_Direction
62 61 60 57 53 50 47 47 62 239 241 220 160 128 63 45 91 166 202 234 43 342 39 44 192 186 208 282 307 294 299 235 205 232 243 218 63 28 356 301 216 195 192 171 189
55 56 55 54 55 54 49 42 43 42 358 256 235 232 200 326 329 269 247 234 197 151 157 128 155 122 40 324 304 254 317 231 197 160 215 183 78 45 349 286 166 144 174 161 179
55 54 53 52 51 50 48 47 40 25 10 339 337 247 251 272 286 280 274 226 210 186 196 136 133 118 28 321 334 321 239 213 201 214 213 162 97 51 313 232 189 108 183 167 166
48 47 44 41 40 37 35 33 31 23 1 327 294 279 263 260 270 267 268 235 206 212 193 153 138 121 12 323 330 301 247 215 200 204 176 174 152 31 219 225 203 137 147 151 154
37 36 35 34 33 32 30 25 17 9 3 8 350 278 270 259 267 270 258 240 213 224 199 176 147 90 239 323 352 331 242 203 190 193 175 170 217 225 251 182 173 170 158 161 141
19 18 18 19 20 21 19 15 11 2 350 347 349 351 334 263 261 267 257 246 215 230 215 191 162 152 249 337 324 8 199 189 180 188 172 159 177 183 239 197 168 185 168 141 131
4 1 1 360 1 1 4 8 10 5 356 345 335 321 297 281 268 248 252 243 206 221 225 208 197 160 229 355 323 10 32 187 178 195 173 170 179 130 232 185 170 178 189 164 139
350 346 345 346 347 348 351 351 357 6 8 1 352 340 327 267 270 256 237 238 207 219 224 215 207 188 191 329 292 336 347 3 360 198 189 189 189 178 200 187 171 176 176 167 150
334 332 331 332 336 340 346 350 350 356 5 3 3 4 348 309 256 245 229 222 205 215 219 218 207 203 178 211 191 249 320 8 23 63 249 212 189 179 192 180 167 169 171 161 145
320 321 320 323 329 334 339 342 347 351 358 7 10 13 23 12 302 233 224 210 194 213 217 217 203 170 250 245 18 71 309 335 42 29 346 330 171 183 189 186 182 179 174 164 181
317 317 316 317 323 327 330 333 335 340 350 357 7 356 357 358 359 249 215 203 198 213 208 207 204 248 251 240 49 36 270 278 338 1 335 337 218 194 187 182 177 194 183 178 175
324 327 325 316 317 317 316 315 318 325 334 339 345 348 329 325 359 350 217 203 197 205 210 203 199 197 222 234 202 222 287 282 298 310 326 155 196 212 203 222 212 204 212 198 172
330 327 332 324 320 319 317 309 302 306 312 318 330 340 340 313 309 99 204 195 193 199 196 183 220 223 221 215 229 270 278 307 250 311 260 272 267 222 229 354 210 209 215 204 206
341 337 324 313 312 311 320 318 310 306 303 308 318 326 329 331 306 299 327 210 201 200 207 209 204 232 216 218 185 259 264 268 252 189 219 210 224 140 282 289 286 273 206 204 203
331 333 315 304 293 301 315 315 307 305 334 320 317 312 304 324 309 285 265 241 219 207 212 236 227 217 217 200 224 234 255 266 242 244 329 298 295 327 300 258 285 210 179 211 218
321 331 328 295 287 294 303 308 303 293 279 290 297 293 285 299 305 298 280 252 242 240 209 197 224 213 204 224 223 214 231 320 272 297 261 252 206 294 214 267 129 247 220 216 214
315 321 327 308 289 290 294 303 298 287 282 293 292 283 281 286 291 287 274 257 247 246 239 237 233 218 218 196 235 188 152 355 171 257 243 266 308 257 262 260 252 249 236 229 228
305 315 315 311 297 295 297 300 300 283 267 270 287 285 280 276 287 291 286 265 246 229 224 239 238 226 236 176 213 206 219 251 311 289 297 319 287 235 252 266 261 254 247 246 244
305 309 315 303 301 298 296 298 291 275 258 262 265 248 263 245 246 275 277 259 239 227 194 235 221 248 221 206 217 227 225 224 223 260 228 263 258 287 273 272 266 260 255 246 245
305 302 298 302 303 297 293 290 283 283 274 259 247 259 233 247 240 229 241 253 236 234 193 209 215 249 260 227 202 196 206 224 225 230 229 235 277 260 277 282 275 266 255 248 243
298 301 302 303 302 301 297 288 288 288 280 262 249 224 236 218 251 241 238 243 243 234 215 202 199 221 251 242 210 230 220 207 218 211 233 257 246 248 275 276 274 272 256 248 244
300 300 301 301 303 302 298 295 293 288 285 273 256 249 237 230 220 236 234 223 262 219 236 214 208 256 262 233 221 189 207 224 230 271 213 231 253 274 276 269 268 275 263 245 253
303 301 301 301 302 299 296 294 292 288 281 271 264 247 240 235 233 226 231 232 234 225 221 222 211 209 238 270 256 244 225 210 218 231 261 246 265 274 264 270 274 274 272 267 255
301 297 293 293 292 290 287 287 286 283 280 272 266 252 248 243 236 236 224 231 235 228 224 204 218 211 227 232 232 244 231 226 225 227 251 256 261 281 267 272 286 287 279 267 254
303 299 294 291 286 284 284 282 281 282 280 275 269 261 253 240 233 233 230 218 239 232 226 227 220 219 223 270 225 221 225 235 249 225 214 239 233 251 269 283 289 292 280 268 263
303 296 293 289 287 284 281 276 277 276 277 275 266 258 251 253 237 229 229 225 224 238 225 225 227 223 247 226 258 242 246 253 247 237 232 227 225 253 266 280 282 283 278 266 256
302 301 298 294 288 284 278 278 272 274 275 267 267 262 263 251 237 238 242 236 225 224 223 227 225 228 238 235 240 257 258 253 252 247 240 236 246 243 260 274 273 274 271 261 250
Height
5885 5884 5883 5881 5881 5880 5879 5879 5879 5879 5880 5880 5880 5880 5880 5880 5880 5879 5879 5879 5879 5879 5878 5878 5877 5877 5878 5879 5879 5877 5877 5876 5871 5879 5877 5877 5876 5876 5876 5875 5874 5873 5873 5873 5873
5888 5886 5885 5883 5882 5881 5880 5879 5879 5879 5879 5879 5879 5879 5879 5879 5879 5878 5879 5879 5878 5878 5878 5877 5877 5878 5880 5880 5878 5877 5876 5874 5864 5874 5878 5876 5876 5876 5876 5875 5875 5874 5874 5873 5873
5890 5888 5887 5886 5884 5883 5882 5881 5880 5879 5879 5879 5878 5878 5878 5878 5878 5878 5878 5878 5878 5878 5878 5877 5877 5879 5881 5880 5877 5875 5874 5875 5874 5876 5878 5877 5876 5876 5876 5876 5875 5874 5875 5874 5873
5892 5891 5889 5888 5886 5885 5883 5882 5880 5879 5878 5878 5878 5877 5877 5877 5878 5877 5877 5877 5877 5877 5877 5878 5878 5880 5882 5878 5876 5874 5873 5873 5875 5878 5878 5878 5878 5879 5878 5877 5876 5874 5875 5874 5874
5894 5893 5891 5889 5888 5886 5884 5882 5880 5879 5878 5877 5876 5876 5875 5875 5875 5875 5875 5876 5876 5875 5877 5878 5879 5880 5879 5879 5876 5871 5870 5870 5872 5875 5877 5879 5879 5878 5878 5877 5877 5876 5876 5876 5875
5896 5894 5892 5890 5889 5887 5885 5883 5881 5879 5877 5876 5875 5874 5874 5873 5873 5873 5873 5874 5875 5875 5876 5877 5878 5880 5879 5879 5876 5872 5868 5868 5870 5873 5877 5878 5879 5879 5879 5878 5878 5878 5878 5878 5878
5896 5895 5893 5891 5889 5887 5885 5883 5881 5878 5876 5874 5873 5872 5872 5872 5870 5871 5871 5872 5873 5873 5875 5876 5877 5879 5873 5875 5878 5874 5871 5869 5868 5872 5877 5875 5881 5878 5880 5879 5878 5879 5880 5879 5879
5896 5894 5892 5890 5888 5886 5884 5882 5880 5878 5875 5873 5872 5870 5870 5869 5869 5869 5869 5870 5871 5872 5874 5875 5876 5879 5878 5880 5878 5875 5874 5870 5867 5871 5875 5876 5875 5879 5880 5879 5879 5879 5881 5881 5881
5894 5892 5889 5888 5886 5884 5882 5881 5879 5877 5875 5872 5870 5869 5868 5867 5867 5867 5867 5868 5869 5871 5873 5874 5876 5878 5880 5876 5869 5869 5873 5874 5874 5874 5874 5876 5876 5878 5880 5880 5879 5881 5882 5882 5883
5891 5889 5886 5884 5883 5882 5881 5879 5877 5876 5874 5872 5870 5870 5868 5866 5865 5865 5866 5866 5867 5869 5871 5874 5876 5879 5879 5876 5863 5871 5871 5874 5876 5876 5876 5875 5874 5878 5880 5882 5878 5881 5883 5884 5883
5887 5885 5883 5881 5880 5880 5879 5877 5877 5876 5873 5872 5871 5869 5867 5866 5864 5864 5864 5865 5866 5868 5870 5873 5875 5881 5871 5872 5862 5872 5874 5877 5877 5876 5877 5877 5878 5880 5880 5881 5880 5882 5884 5884 5885
5884 5882 5880 5878 5877 5877 5876 5875 5874 5873 5872 5870 5869 5868 5866 5865 5864 5863 5863 5864 5865 5867 5869 5873 5875 5879 5876 5875 5877 5877 5878 5878 5879 5878 5878 5879 5878 5879 5879 5880 5882 5880 5882 5883 5885
5882 5880 5878 5877 5875 5874 5873 5872 5870 5870 5870 5869 5868 5867 5865 5864 5863 5862 5862 5862 5864 5865 5867 5870 5880 5873 5874 5875 5878 5882 5882 5879 5876 5879 5879 5878 5878 5878 5879 5878 5880 5882 5878 5883 5885
5880 5878 5877 5875 5874 5872 5871 5869 5868 5867 5866 5868 5866 5865 5864 5863 5863 5862 5861 5862 5862 5864 5865 5868 5871 5871 5872 5874 5880 5885 5878 5877 5877 5875 5869 5874 5874 5876 5878 5878 5879 5879 5880 5882 5884
5878 5877 5875 5872 5871 5870 5869 5867 5865 5865 5867 5865 5864 5863 5863 5863 5862 5860 5861 5860 5861 5862 5865 5868 5868 5869 5870 5874 5878 5881 5876 5878 5878 5882 5876 5878 5878 5872 5877 5879 5880 5879 5880 5882 5884
5876 5874 5872 5870 5868 5867 5865 5864 5863 5864 5864 5862 5861 5861 5860 5860 5860 5860 5859 5860 5860 5860 5862 5863 5865 5867 5871 5872 5871 5874 5876 5877 5879 5882 5884 5880 5884 5881 5876 5879 5867 5878 5880 5881 5882
5873 5870 5868 5866 5865 5863 5862 5861 5861 5860 5860 5858 5858 5858 5858 5858 5858 5857 5857 5857 5858 5860 5860 5862 5863 5864 5866 5871 5872 5873 5878 5880 5880 5882 5877 5879 5882 5880 5876 5875 5878 5877 5878 5880 5881
5869 5867 5865 5863 5862 5860 5858 5858 5857 5856 5857 5854 5854 5853 5856 5856 5855 5855 5855 5856 5856 5858 5866 5864 5865 5863 5864 5869 5872 5874 5879 5878 5878 5884 5877 5878 5880 5877 5872 5872 5874 5874 5875 5876 5878
5865 5862 5861 5860 5858 5857 5856 5853 5853 5852 5852 5851 5850 5852 5852 5854 5856 5853 5853 5854 5855 5856 5861 5868 5867 5864 5865 5865 5869 5868 5874 5878 5878 5883 5882 5884 5877 5874 5871 5869 5870 5870 5871 5872 5874
5860 5858 5857 5855 5853 5852 5851 5849 5847 5846 5845 5845 5846 5847 5850 5852 5852 5852 5853 5853 5854 5853 5855 5863 5867 5862 5862 5860 5862 5864 5868 5876 5876 5879 5879 5876 5877 5874 5867 5866 5866 5866 5866 5868 5870
5855 5854 5852 5850 5848 5846 5845 5844 5842 5841 5840 5840 5841 5843 5846 5851 5851 5850 5851 5854 5851 5851 5851 5855 5861 5859 5857 5859 5862 5864 5864 5867 5872 5873 5873 5877 5870 5868 5866 5865 5863 5862 5863 5864 5865
5849 5848 5845 5843 5843 5840 5838 5837 5837 5835 5834 5834 5834 5835 5837 5843 5845 5846 5850 5850 5848 5849 5848 5850 5858 5857 5858 5860 5857 5856 5864 5867 5871 5871 5872 5872 5873 5861 5863 5861 5861 5860 5860 5861 5862
5843 5841 5839 5837 5836 5833 5832 5831 5830 5828 5827 5826 5827 5827 5829 5831 5834 5837 5842 5844 5843 5844 5847 5848 5850 5856 5851 5856 5855 5856 5857 5859 5862 5867 5867 5867 5864 5859 5859 5858 5858 5857 5857 5857 5858
5835 5832 5832 5829 5828 5826 5823 5823 5821 5820 5819 5817 5818 5818 5819 5821 5824 5828 5834 5838 5836 5837 5838 5840 5847 5849 5854 5844 5850 5851 5853 5856 5857 5863 5865 5865 5861 5857 5854 5854 5854 5854 5853 5852 5853
5827 5824 5820 5819 5818 5817 5814 5813 5813 5811 5810 5809 5809 5809 5811 5812 5817 5819 5824 5827 5828 5829 5831 5835 5839 5843 5844 5837 5843 5848 5851 5852 5851 5853 5858 5861 5860 5857 5849 5851 5850 5850 5849 5848 5848
5818 5815 5813 5811 5808 5807 5804 5804 5803 5802 5801 5801 5800 5801 5800 5803 5808 5813 5811 5815 5818 5822 5825 5828 5832 5837 5838 5840 5836 5841 5843 5844 5846 5846 5848 5851 5854 5851 5843 5847 5847 5846 5845 5845 5844
5809 5806 5803 5801 5798 5797 5794 5794 5792 5791 5792 5791 5787 5791 5791 5793 5789 5792 5797 5804 5810 5811 5815 5821 5826 5829 5831 5833 5837 5836 5836 5838 5840 5840 5842 5843 5845 5843 5839 5842 5842 5841 5841 5841 5841